Home   Weather   Antananarivo   Past weeks
Flag for Madagascar

Past Weather in Antananarivo, Madagascar — Yesterday and Last 2 Weeks

Now
79 °F

Scattered clouds.


Feels Like: 81 °F
Forecast: 80 / 63 °F
Wind: 6 mph from East

Location: Antananarivo / Ivato

Current Time: Mar 22, 2019 at 11:31:58 am

Latest Report: Mar 22, 2019 at 10:30 am


Visibility: N/A

Pressure: 30.12 "Hg (26.00 "Hg at 1287m altitude)

Humidity: 61%

Dew Point: 64 °F

Location of AntananarivoLocation

Past Weather in Antananarivo — Graph

°F

Antananarivo Temperature Yesterday

Maximum temperature yesterday: 82 °F (at 12:30 pm)
Minimum temperature yesterday: 64 °F (at 9:00 pm)
Average temperature yesterday: 71 °F

High & Low Weather Summary for the Past Weeks

 TemperatureHumidityPressure
High86 °F (Mar 13, 2:30 pm)100% (Mar 7, 10:00 pm)30.18 "Hg (Mar 7, 10:00 pm)
Low61 °F (Mar 8, 4:30 am)34% (Mar 16, 1:00 pm)29.89 "Hg (Mar 7, 3:00 pm)
Average71 °F78%30.07 "Hg
* Reported Mar 7 10:00 am — Mar 22 10:30 am, Antananarivo. Weather by CustomWeather, © 2019

Note: Actual official high and low records may vary slightly from our data, if they occured in-between our weather recording intervals... More about our weather records

Advertising

Antananarivo Weather History for the Previous 24 Hours

Scroll right to see more
 ConditionsComfort  
Time TempWeatherWind HumidityBarometerVisibility
10:30 am
Fri, Mar 22
79 °FScattered clouds.6 mph61%30.12 "HgN/A
10:00 am77 °FScattered clouds.3 mph65%30.12 "HgN/A
9:30 am75 °FPassing clouds.3 mph65%30.12 "HgN/A
9:00 am73 °FPassing clouds.3 mph69%30.12 "HgN/A
8:30 am72 °FPassing clouds.3 mph78%30.12 "HgN/A
8:00 am72 °FPassing clouds.6 mph73%30.09 "HgN/A
7:30 am70 °FPassing clouds.5 mph78%30.09 "HgN/A
7:00 am68 °FScattered clouds.3 mph83%30.09 "HgN/A
6:30 am64 °FScattered clouds.2 mph88%30.09 "HgN/A
6:00 am64 °FScattered clouds.2 mph88%30.09 "HgN/A
5:30 am64 °FPassing clouds.5 mph88%30.09 "HgN/A
5:00 am64 °FPassing clouds.7 mph94%30.09 "HgN/A
4:30 am64 °FPassing clouds.6 mph94%30.09 "HgN/A
4:00 am64 °FPassing clouds.6 mph94%30.09 "HgN/A
3:30 am64 °FPassing clouds.3 mph100%30.07 "HgN/A
3:00 am64 °FPassing clouds.3 mph94%30.07 "HgN/A
2:30 am64 °FPassing clouds.3 mph94%30.07 "HgN/A
2:00 am64 °FPassing clouds.2 mph100%30.07 "HgN/A
1:00 am64 °FPassing clouds.2 mph100%30.09 "HgN/A
12:30 am64 °FPassing clouds.5 mph100%30.09 "HgN/A
12:00 am64 °FLight rain. Passing clouds.5 mph100%30.12 "HgN/A
11:30 pm
Thu, Mar 21
64 °FThunderstorms. Passing clouds.5 mph100%30.12 "Hg4 mi
11:00 pm64 °FThunderstorms. Passing clouds.1 mph94%30.12 "Hg4 mi
10:40 pm64 °FThunderstorms. Passing clouds.8 mph94%30.15 "Hg5 mi
10:00 pm64 °FThunderstorms. Passing clouds.5 mph94%30.15 "Hg2 mi
9:38 pm64 °FThunderstorms. Passing clouds.2 mph94%30.15 "Hg2 mi
9:00 pm64 °FThunderstorms. Passing clouds.13 mph94%30.12 "Hg4 mi
8:30 pm66 °FThunderstorms. Passing clouds.15 mph94%30.12 "Hg3 mi
8:00 pm66 °FThunderstorms. Partly cloudy.5 mph94%30.09 "Hg3 mi
7:30 pm68 °FThunderstorms. Partly cloudy.5 mph88%30.07 "Hg4 mi
7:00 pm70 °FThunderstorms. Partly cloudy.8 mph83%30.07 "HgN/A
6:30 pm72 °FThunderstorms. Passing clouds.5 mph83%30.04 "HgN/A
6:00 pm72 °FThunderstorms. Passing clouds.7 mph73%30.04 "HgN/A
5:30 pm73 °FThunderstorms. Broken clouds.6 mph78%30.01 "HgN/A
5:09 pm73 °FThunderstorms. Broken clouds.6 mph78%30.01 "HgN/A
5:00 pm73 °FScattered clouds.3 mph78%30.01 "HgN/A
4:30 pm73 °FThunderstorms. Partly sunny.8 mph78%30.01 "HgN/A
4:00 pm73 °FThunderstorms. Partly sunny.12 mph78%30.01 "HgN/A
3:40 pm72 °FThunderstorms. Partly sunny.10 mph83%30.01 "HgN/A
3:00 pm75 °FLight rain. Partly sunny.2 mph74%30.01 "HgN/A
2:30 pm73 °FPartly sunny.8 mph74%30.01 "HgN/A
2:00 pm81 °FPartly sunny.6 mph58%30.04 "HgN/A
1:30 pm82 °FPartly sunny.3 mph51%30.04 "HgN/A
1:00 pm82 °FPartly sunny.3 mph58%30.04 "HgN/A
12:30 pm82 °FPartly sunny.8 mph55%30.07 "HgN/A
12:00 pm79 °FPartly sunny.5 mph58%30.07 "HgN/A
11:30 am81 °FScattered clouds.7 mph54%30.09 "HgN/A
11:00 am79 °FScattered clouds.7 mph61%30.09 "HgN/A
Weather by CustomWeather, © 2019

See weather overview